GW5770 Weather Reports


time (UTC)temp
F
wind
direction
speed
knots
gust
knots
rain 1hr
in
rain 24hr
in
rain mn
in
humidity
%
barometer
mb
20260507205350 63 187 1.7 5.2 0.00 0.07 0.07 55 1009.6
20260507204846 63 184 1.7 5.2 0.00 0.07 0.07 52 1009.4
20260507204343 62 132 2.6 5.2 0.00 0.07 0.07 52 1009.4
20260507203841 63 143 4.3 11.3 0.00 0.07 0.07 50 1009.6
20260507203339 64 195 1.7 3.5 0.00 0.07 0.07 50 1009.5
20260507202834 65 188 0.9 3.5 0.00 0.07 0.07 49 1009.5
20260507202331 66 176 0.0 3.5 0.00 0.07 0.07 50 1009.5
20260507201827 64 173 1.7 5.2 0.00 0.07 0.07 48 1009.6
20260507201322 65 144 1.7 2.6 0.00 0.07 0.07 48 1009.6
20260507200819 64 244 2.6 7.0 0.00 0.07 0.07 49 1009.5
20260507200315 65 198 2.6 6.1 0.00 0.07 0.07 49 1009.6
20260507195811 64 236 0.9 2.6 0.00 0.07 0.07 49 1009.4
20260507195309 64 201 2.6 3.5 0.00 0.07 0.07 48 1009.6
20260507194806 63 244 0.9 6.1 0.00 0.07 0.07 50 1009.5
20260507194302 63 187 2.6 6.1 0.00 0.07 0.07 49 1009.6
20260507193758 65 176 2.6 6.1 0.00 0.07 0.07 48 1009.7
20260507193255 64 231 0.9 1.7 0.00 0.07 0.07 48 1009.5
20260507192751 65 144 3.5 7.0 0.00 0.07 0.07 43 1009.8
20260507192248 65 182 2.6 6.1 0.00 0.07 0.07 42 1009.8
20260507191744 66 232 1.7 2.6 0.00 0.07 0.07 42 1010.0
20260507191241 67 202 0.0 1.7 0.00 0.07 0.07 40 1009.9
20260507190738 68 181 1.7 3.5 0.00 0.07 0.07 41 1009.9
20260507190237 66 225 0.9 1.7 0.00 0.07 0.07 43 1010.1
20260507185735 66 76 3.5 5.2 0.00 0.07 0.07 40 1010.4
20260507185231 67 89 1.7 5.2 0.00 0.07 0.07 39 1010.3
20260507184729 66 254 0.9 1.7 0.00 0.07 0.07 41 1010.1
20260507184227 66 161 1.7 2.6 0.00 0.07 0.07 41 1010.3
20260507183723 66 52 1.7 2.6 0.00 0.07 0.07 40 1010.4
20260507183220 66 116 1.7 2.6 0.00 0.07 0.07 41 1010.4
20260507182717 65 173 1.7 3.5 0.00 0.07 0.07 39 1010.7
20260507182212 64 222 0.9 3.5 0.00 0.07 0.07 40 1010.9
20260507181709 64 179 0.9 3.5 0.00 0.07 0.07 40 1010.8
20260507181206 63 150 0.9 3.5 0.00 0.07 0.07 40 1010.9
20260507180702 62 127 1.7 2.6 0.00 0.07 0.07 44 1011.1
20260507180159 62 180 1.7 3.5 0.00 0.07 0.07 42 1011.1
20260507175655 62 106 1.7 5.2 0.00 0.07 0.07 43 1011.1
20260507175152 62 71 1.7 2.6 0.00 0.07 0.07 44 1011.1
20260507174650 62 168 0.9 5.2 0.00 0.07 0.07 44 1011.2
20260507174148 64 181 0.0 3.5 0.00 0.07 0.07 42 1011.0
20260507173645 63 201 1.7 1.7 0.00 0.07 0.07 44 1011.3
20260507173141 60 253 0.0 0.9 0.00 0.07 0.07 46 1011.5
20260507172638 63 243 3.5 5.2 0.00 0.07 0.07 41 1011.8
20260507172135 63 220 0.9 1.7 0.00 0.07 0.07 44 1011.8
20260507171635 63 210 0.9 1.7 0.00 0.07 0.07 43 1012.0
20260507171133 61 334 0.0 0.0 0.00 0.07 0.07 43 1011.9
20260507170630 60 109 1.7 2.6 0.00 0.07 0.07 44 1011.9
20260507170127 60 59 2.6 3.5 0.00 0.07 0.07 44 1012.1
20260507165622 60 218 0.0 0.9 0.00 0.07 0.07 45 1012.3
20260507165119 61 215 0.9 0.9 0.00 0.07 0.07 44 1012.3
20260507164615 62 88 0.9 0.9 0.00 0.07 0.07 44 1012.2
20260507164112 61 43 0.0 0.9 0.00 0.07 0.07 46 1012.3
20260507163609 60 78 0.0 1.7 0.00 0.07 0.07 46 1012.1
20260507163107 60 97 0.9 1.7 0.00 0.07 0.07 46 1012.3
20260507162602 60 239 0.9 2.6 0.00 0.07 0.07 47 1012.4
20260507162059 59 205 0.0 2.6 0.00 0.07 0.07 49 1012.6
20260507161555 58 257 0.0 0.9 0.00 0.07 0.07 49 1012.8
20260507161052 58 224 0.0 0.9 0.00 0.07 0.07 51 1012.7
20260507160548 58 233 0.0 0.9 0.00 0.07 0.07 50 1012.7
20260507160044 58 63 0.9 1.7 0.00 0.07 0.07 50 1012.9
20260507155540 58 253 0.0 3.5 0.00 0.07 0.07 52 1012.8
20260507155037 57 242 0.0 0.0 0.00 0.07 0.07 56 1012.9
20260507154534 56 258 2.6 2.6 0.00 0.07 0.07 55 1012.8
20260507154031 57 265 1.7 3.5 0.00 0.07 0.07 54 1013.0
20260507153528 57 238 0.0 0.0 0.00 0.07 0.07 55 1013.0
20260507153024 57 240 0.0 0.9 0.00 0.07 0.07 53 1013.0
20260507152520 58 240 0.0 1.7 0.00 0.07 0.07 54 1013.3
20260507152016 58 239 0.9 0.9 0.00 0.07 0.07 54 1013.2
20260507151513 57 243 0.0 0.0 0.00 0.07 0.07 57 1013.0
20260507151010 56 253 0.9 0.9 0.00 0.07 0.07 56 1012.8
20260507150507 56 46 0.0 0.9 0.00 0.07 0.07 58 1013.3
20260507150004 56 223 0.9 1.7 0.00 0.07 0.07 60 1013.1
20260507145458 56 239 0.0 0.9 0.00 0.07 0.07 62 1013.2
20260507144956 56 242 0.9 1.7 0.00 0.07 0.07 61 1013.5
20260507144453 55 40 0.0 1.7 0.00 0.07 0.07 61 1013.3
20260507143949 54 244 0.0 0.0 0.00 0.07 0.07 65 1013.5
20260507143447 54 264 0.0 0.0 0.00 0.07 0.07 63 1013.5
20260507142944 54 290 0.9 1.7 0.00 0.07 0.07 65 1013.5
20260507142439 53 248 0.0 1.7 0.00 0.07 0.07 65 1013.5
20260507141937 53 286 1.7 1.7 0.00 0.07 0.07 64 1013.7
20260507141432 53 326 2.6 5.2 0.00 0.07 0.07 63 1013.8
20260507140929 53 4 0.0 0.9 0.00 0.07 0.07 65 1013.7
20260507140426 53 267 0.9 1.7 0.00 0.07 0.07 65 1013.7
20260507135924 53 244 0.9 1.7 0.00 0.07 0.07 65 1013.7
20260507135420 53 253 0.9 0.9 0.00 0.07 0.07 65 1013.9
20260507134918 54 296 0.0 3.5 0.00 0.07 0.07 63 1013.8
20260507134414 54 253 0.0 0.0 0.00 0.07 0.07 65 1013.7
20260507133910 53 254 0.0 0.0 0.00 0.07 0.07 64 1013.8
20260507133406 53 287 0.9 2.6 0.00 0.07 0.07 64 1013.8
20260507132905 53 301 0.9 2.6 0.00 0.07 0.07 63 1014.0
20260507132401 53 27 0.9 2.6 0.00 0.07 0.07 65 1013.9
20260507131858 53 266 1.7 2.6 0.00 0.07 0.07 67 1013.7
20260507131355 53 329 0.9 3.5 0.00 0.07 0.07 66 1013.9
20260507130852 53 238 0.0 0.9 0.00 0.07 0.07 69 1013.7
20260507130349 53 52 0.9 6.1 0.00 0.07 0.07 69 1013.8
20260507125848 53 256 0.0 1.7 0.00 0.07 0.07 72 1013.5
20260507125345 53 284 0.0 0.9 0.00 0.07 0.07 72 1013.8
20260507124842 53 282 0.0 1.7 0.00 0.07 0.07 74 1013.9
20260507124338 53 247 0.0 0.9 0.00 0.07 0.07 73 1013.8
20260507123837 53 310 0.0 0.0 0.00 0.07 0.07 74 1013.6
20260507123334 53 258 0.9 1.7 0.00 0.07 0.07 75 1014.0
20260507122830 53 246 0.0 0.9 0.00 0.07 0.07 75 1013.9
20260507122325 53 258 0.9 1.7 0.00 0.07 0.07 74 1013.7
20260507121823 53 277 0.0 0.0 0.00 0.07 0.07 77 1013.6
20260507121317 53 254 0.0 0.9 0.00 0.07 0.07 74 1013.7
20260507120814 53 258 0.0 0.9 0.00 0.07 0.07 75 1013.7
20260507120310 53 229 0.0 0.9 0.00 0.07 0.07 75 1013.6
20260507115807 53 304 0.0 0.9 0.00 0.07 0.07 76 1013.5
20260507115306 53 56 0.9 5.2 0.00 0.07 0.07 76 1013.5
20260507114758 53 247 1.7 3.5 0.00 0.07 0.07 79 1013.6
20260507114256 53 166 0.0 0.0 0.00 0.07 0.07 83 1013.3
20260507113753 53 250 0.0 2.6 0.00 0.07 0.07 86 1013.3
20260507113250 53 249 0.9 1.7 0.00 0.07 0.07 88 1013.2
20260507112748 53 73 0.0 0.9 0.00 0.07 0.07 91 1013.2
20260507112244 54 286 1.7 1.7 0.00 0.07 0.07 93 1013.3
20260507111742 54 256 0.0 0.9 0.00 0.07 0.07 94 1013.2
20260507111238 54 258 0.0 0.9 0.00 0.07 0.07 95 1013.1
20260507110735 54 257 0.0 0.0 0.00 0.07 0.07 95 1013.2
20260507110231 54 348 0.0 0.0 0.00 0.07 0.07 95 1013.1
20260507105728 54 269 0.0 0.0 0.00 0.07 0.07 96 1013.2
20260507105224 54 268 0.0 0.0 0.00 0.07 0.07 96 1013.2
20260507104722 54 269 0.0 0.0 0.00 0.07 0.07 96 1013.1
20260507104218 54 268 0.0 0.0 0.00 0.07 0.07 96 1012.8
20260507103714 54 269 0.0 0.9 0.00 0.07 0.07 96 1012.8
20260507103211 54 262 0.0 0.0 0.00 0.07 0.07 96 1012.8
20260507102707 54 260 0.0 0.9 0.00 0.07 0.07 96 1012.8
20260507102204 54 259 0.0 0.0 0.00 0.07 0.07 96 1012.6
20260507101700 54 259 0.0 0.0 0.00 0.07 0.07 96 1012.5
20260507101155 54 260 0.0 0.0 0.00 0.07 0.07 96 1012.6
20260507100653 54 351 0.0 0.9 0.00 0.07 0.07 96 1012.8
20260507100151 54 228 0.0 0.0 0.00 0.07 0.07 96 1012.5
20260507095649 54 258 0.0 0.0 0.00 0.07 0.07 96 1012.6
20260507095145 54 258 0.0 0.0 0.00 0.07 0.07 96 1012.6
20260507094642 54 245 0.0 0.0 0.00 0.07 0.07 96 1012.7
20260507094138 54 229 0.0 0.0 0.00 0.07 0.07 96 1012.6
20260507093636 54 230 0.0 0.0 0.00 0.07 0.07 96 1012.5
20260507093134 54 229 0.0 0.0 0.00 0.07 0.07 96 1012.6
20260507092631 54 229 0.0 0.0 0.00 0.07 0.07 96 1012.7
20260507092127 54 225 0.0 0.0 0.00 0.07 0.07 95 1012.3
20260507091624 54 325 0.0 0.0 0.00 0.07 0.07 95 1012.2
20260507091120 54 240 0.0 0.0 0.00 0.07 0.07 95 1012.4
20260507090616 54 191 0.0 0.0 0.00 0.07 0.07 95 1012.4
20260507090113 54 254 0.0 0.0 0.00 0.07 0.07 95 1012.6
20260507085610 54 259 0.0 0.0 0.00 0.07 0.07 95 1012.4
20260507085107 54 254 0.0 0.0 0.00 0.07 0.07 95 1012.3
20260507084603 54 255 0.0 0.0 0.00 0.07 0.07 95 1012.2
20260507084101 54 247 0.0 0.0 0.00 0.07 0.07 94 1012.2
20260507083556 54 247 0.0 0.0 0.00 0.07 0.07 94 1012.5
20260507083054 54 247 0.0 0.0 0.00 0.07 0.07 94 1012.4
20260507082549 54 248 0.0 0.0 0.00 0.07 0.07 94 1012.4
20260507082046 54 251 0.0 0.9 0.00 0.07 0.07 94 1012.3
20260507081543 54 222 0.0 0.0 0.00 0.07 0.07 94 1012.1
20260507081040 54 204 0.0 0.0 0.00 0.07 0.07 94 1011.7
20260507080535 54 205 0.0 0.9 0.00 0.07 0.07 94 1011.8
20260507080032 54 250 0.0 1.7 0.00 0.07 0.07 94 1011.6
20260507075527 54 297 1.7 2.6 0.00 0.07 0.07 94 1011.7
20260507075024 54 232 0.0 0.9 0.00 0.07 0.07 94 1011.8
20260507074521 54 259 0.0 2.6 0.00 0.07 0.07 94 1011.8
20260507074020 54 258 0.0 0.9 0.00 0.07 0.07 94 1011.7
20260507073515 54 278 0.9 1.7 0.00 0.07 0.07 94 1011.4
20260507073012 54 253 0.0 0.9 0.00 0.07 0.07 93 1011.4
20260507072509 55 273 0.9 2.6 0.00 0.07 0.07 93 1011.6
20260507072006 55 256 0.0 1.7 0.00 0.07 0.07 93 1011.5
20260507071504 55 305 1.7 1.7 0.05 0.07 0.07 93 1011.5
20260507071000 55 254 0.9 1.7 0.12 0.07 0.07 93 1011.5
20260507070457 55 287 0.9 1.7 0.07 0.06 0.06 93 1011.4
20260507065954 55 273 0.9 6.1 0.00 0.05 0.05 94 1011.5
20260507065451 55 260 0.0 0.9 0.00 0.05 0.05 94 1011.4
20260507064948 55 305 1.7 3.5 0.00 0.05 0.05 94 1011.5
20260507064446 55 227 0.9 1.7 0.00 0.05 0.05 94 1011.6
20260507063944 55 199 0.0 1.7 0.00 0.05 0.05 94 1011.6
20260507063440 55 292 0.0 0.9 0.00 0.05 0.05 94 1011.7
20260507062937 55 227 0.9 1.7 0.00 0.05 0.05 94 1011.6
20260507062434 55 270 0.0 1.7 0.00 0.05 0.05 94 1011.5
20260507061932 55 304 4.3 6.1 0.00 0.05 0.05 94 1011.4
20260507061430 55 326 1.7 2.6 0.00 0.05 0.05 94 1011.4
20260507060928 55 13 1.7 3.5 0.00 0.05 0.05 94 1011.3
20260507060424 55 218 3.5 5.2 0.00 0.05 0.05 94 1011.4
20260507055921 56 338 0.0 2.6 0.00 0.05 0.05 94 1011.5
20260507055416 56 236 0.9 1.7 0.05 0.05 0.05 94 1011.5
20260507054914 56 295 2.6 3.5 0.05 0.05 0.05 93 1011.7
20260507054410 56 218 0.0 1.7 0.00 0.04 0.04 93 1011.5
20260507053907 56 306 0.9 1.7 0.00 0.04 0.04 93 1011.8
20260507053405 56 243 0.0 0.9 0.00 0.04 0.04 93 1011.6
20260507052903 56 277 1.7 3.5 0.00 0.04 0.04 93 1011.8
20260507052400 56 335 0.9 1.7 0.00 0.04 0.04 92 1011.7
20260507051857 56 287 0.9 1.7 0.00 0.04 0.04 92 1011.3
20260507051355 56 262 0.9 1.7 0.00 0.04 0.04 92 1011.4
20260507050851 57 247 0.9 1.7 0.00 0.04 0.04 91 1011.2
20260507050348 57 336 0.9 1.7 0.00 0.04 0.04 91 1011.7
20260507045845 57 356 0.9 1.7 0.07 0.04 0.04 90 1011.7
20260507045341 57 279 0.9 1.7 0.12 0.04 0.04 89 1011.7
20260507044839 57 303 0.9 1.7 0.00 0.02 0.02 88 1011.9
20260507044335 58 14 1.7 2.6 0.00 0.02 0.02 88 1011.7
20260507043831 58 14 0.9 0.9 0.00 0.02 0.02 88 1011.8
20260507043328 59 239 0.9 1.7 0.07 0.02 0.02 86 1011.5
20260507042824 60 91 0.9 3.5 0.14 0.02 0.02 86 1011.7
20260507042320 60 113 1.7 2.6 0.07 0.01 0.01 84 1012.0
20260507041817 61 300 0.0 1.7 0.00 0.00 0.00 83 1011.9
20260507041313 61 251 0.9 1.7 0.00 0.00 0.00 81 1011.5
20260507040811 61 226 0.0 2.6 0.00 0.00 0.00 81 1011.6
20260507040307 61 272 0.9 0.9 0.00 0.00 0.00 81 1011.5
20260507035802 61 2 1.7 1.7 0.00 0.26 0.26 81 1011.4
20260507035258 61 247 0.0 1.7 0.00 0.26 0.26 80 1011.2
20260507034756 62 271 0.9 3.5 0.00 0.26 0.26 78 1011.1
20260507034252 62 59 1.7 5.2 0.00 0.26 0.26 77 1011.1
20260507033751 63 249 0.9 2.6 0.00 0.26 0.26 76 1011.2
20260507033248 63 69 0.9 3.5 0.00 0.26 0.26 75 1011.1
20260507032745 63 304 0.9 7.0 0.00 0.26 0.26 75 1011.2
20260507032241 63 110 0.0 1.7 0.00 0.26 0.26 75 1011.2
20260507031738 63 289 1.7 3.5 0.00 0.26 0.26 75 1011.1
20260507031235 63 30 1.7 5.2 0.00 0.26 0.26 76 1011.3
20260507030731 63 242 1.7 2.6 0.00 0.26 0.26 75 1011.1
20260507030229 63 282 0.9 1.7 0.00 0.26 0.26 75 1010.7
20260507025726 63 292 0.9 2.6 0.00 0.26 0.26 75 1010.4
20260507025223 63 345 2.6 8.7 0.00 0.26 0.26 74 1010.6
20260507024721 64 339 0.9 5.2 0.00 0.26 0.26 74 1010.8
20260507024218 64 54 1.7 6.1 0.00 0.26 0.26 74 1011.0
20260507023714 64 269 7.0 7.8 0.00 0.26 0.26 75 1011.0
20260507023211 64 342 2.6 9.6 0.00 0.26 0.26 75 1010.9
20260507022708 65 68 0.9 3.5 0.00 0.26 0.26 78 1010.6
20260507022204 65 209 0.9 3.5 0.00 0.26 0.26 78 1010.6
20260507021700 65 242 0.0 0.9 0.00 0.26 0.26 79 1010.6
20260507021155 65 201 0.0 1.7 0.00 0.26 0.26 81 1010.6
20260507020655 66 26 0.0 2.6 0.00 0.26 0.26 80 1010.4
20260507020150 66 277 1.7 2.6 0.00 0.26 0.26 80 1010.5
20260507015648 66 320 0.9 5.2 0.00 0.26 0.26 80 1010.2
20260507015145 66 291 2.6 5.2 0.00 0.26 0.26 80 1010.2
20260507014642 66 276 1.7 5.2 0.00 0.26 0.26 80 1010.2
20260507014138 67 266 1.7 6.1 0.00 0.26 0.26 81 1010.1
20260507013635 67 263 0.9 2.6 0.00 0.26 0.26 82 1010.4
20260507013132 68 233 1.7 2.6 0.00 0.26 0.26 82 1010.3
20260507012629 68 300 4.3 6.1 0.00 0.26 0.26 83 1010.3
20260507012124 68 276 0.9 1.7 0.00 0.26 0.26 83 1010.3
20260507011623 68 233 0.9 0.9 0.00 0.26 0.26 83 1010.4
20260507011119 68 261 0.9 1.7 0.00 0.26 0.26 83 1010.4
20260507010614 68 220 0.0 0.0 0.00 0.26 0.26 84 1010.4
20260507010110 68 270 0.9 0.9 0.00 0.26 0.26 84 1010.1
20260507005608 67 266 0.9 0.9 0.00 0.26 0.26 85 1010.3
20260507005104 67 250 0.0 0.0 0.00 0.26 0.26 85 1010.2
20260507004601 67 230 0.0 0.0 0.00 0.26 0.26 85 1010.3
20260507004058 67 229 0.0 0.0 0.00 0.26 0.26 85 1010.1
20260507003554 67 229 0.0 0.0 0.00 0.26 0.26 85 1010.2
20260507003049 68 229 0.0 0.0 0.00 0.26 0.26 84 1009.8
20260507002546 68 229 0.0 0.0 0.00 0.26 0.26 83 1010.0
20260507002042 68 185 0.0 0.0 0.00 0.26 0.26 82 1009.7
20260507001539 68 212 0.0 0.0 0.00 0.26 0.26 82 1009.8
20260507001036 68 222 0.0 0.0 0.00 0.26 0.26 82 1009.9
20260507000532 68 214 0.0 0.0 0.00 0.26 0.26 81 1009.7
20260507000028 68 214 0.0 0.0 0.00 0.26 0.26 81 1009.9
20260506235526 68 214 0.0 0.0 0.00 0.26 0.26 81 1009.7
20260506235021 68 214 0.0 0.0 0.00 0.26 0.26 80 1009.8
20260506234519 69 214 0.0 0.0 0.00 0.26 0.26 80 1009.8
20260506234016 69 203 0.0 0.0 0.00 0.26 0.26 80 1009.6
20260506233512 69 202 0.0 0.0 0.00 0.26 0.26 79 1009.6
20260506233009 69 208 0.0 0.0 0.00 0.26 0.26 80 1009.4
20260506232505 69 197 0.0 0.0 0.00 0.26 0.26 79 1009.3
20260506232001 69 231 0.0 0.0 0.00 0.26 0.26 79 1009.5
20260506231459 69 215 1.7 2.6 0.00 0.26 0.26 78 1009.3
20260506230956 69 191 0.0 0.0 0.00 0.26 0.26 79 1009.1
20260506230452 69 162 0.0 0.9 0.00 0.26 0.26 78 1009.2
20260506225949 69 211 0.9 1.7 0.00 0.26 0.26 78 1009.4
20260506225446 70 222 1.7 2.6 0.00 0.26 0.26 76 1009.1
20260506224943 70 198 0.0 0.0 0.00 0.26 0.26 77 1009.0
20260506224440 70 266 0.9 1.7 0.00 0.26 0.26 77 1008.9
20260506223936 70 248 0.9 0.9 0.00 0.26 0.26 77 1009.0
20260506223432 70 211 2.6 3.5 0.00 0.26 0.26 76 1009.1
20260506222930 70 201 0.0 0.9 0.00 0.26 0.26 77 1009.2
20260506222426 71 200 0.9 2.6 0.00 0.26 0.26 75 1009.1
20260506221923 71 236 0.0 0.9 0.00 0.26 0.26 76 1008.9
20260506221420 71 203 0.0 1.7 0.00 0.26 0.26 76 1008.9
20260506220918 71 219 1.7 2.6 0.00 0.26 0.26 75 1008.9
20260506220413 71 229 0.0 1.7 0.00 0.26 0.26 74 1009.0
20260506215910 72 218 0.9 3.5 0.00 0.26 0.26 73 1009.0
20260506215406 71 194 0.9 2.6 0.00 0.26 0.26 74 1008.8
20260506214902 72 199 2.6 5.2 0.00 0.26 0.26 73 1008.9
20260506214359 72 210 0.9 2.6 0.00 0.26 0.26 73 1008.8
20260506213857 71 207 0.9 2.6 0.00 0.26 0.26 74 1009.1
20260506213354 71 239 0.9 3.5 0.00 0.26 0.26 74 1009.1
20260506212851 71 283 1.7 3.5 0.00 0.26 0.26 75 1009.0
20260506212347 71 246 0.9 2.6 0.00 0.26 0.26 74 1008.8
20260506211842 71 240 1.7 2.6 0.00 0.26 0.26 74 1008.9
20260506211338 72 224 2.6 3.5 0.00 0.26 0.26 72 1008.8
20260506210836 73 210 0.9 3.5 0.00 0.26 0.26 72 1008.9
20260506210332 72 236 0.0 2.6 0.00 0.26 0.26 73 1008.7
20260506205830 71 233 1.7 2.6 0.00 0.26 0.26 73 1008.5